Location: Barcelona
(41.3830°N, 2.1830°E)
Time: 23:51:14
(UTC+02:00)

ISS - Pass Details

Date: 25 May 2019
Orbit: 408 x 418 km, 51.6° (Epoch: 26 May)

Event Time Altitude Azimuth Distance (km) Brightness Sun altitude
Rises 21:46:07 0° 277° (W) 2,343 1.3 -6.2°
Reaches altitude 10° 21:48:38 10° 296° (WNW) 1,485 0.7 -6.6°
Maximum altitude 21:51:06 19° 344° (NNW) 1,062 -0.9 -6.9°
Drops below altitude 10° 21:53:34 10° 32° (NNE) 1,492 -0.9 -7.3°
Sets 21:56:06 0° 51° (NE) 2,358 -0.1 -7.7°
